CEB212 RPLL-VHHH

Flight info

Callsign CEB212
Flight time 1h 45m
Altitude 34000
Route RDVXCAB/06 CAB A461 NOMAN V533 BETTY
Aircraft A333/H-SDE3GHIJ2J3J5M1RVWXY/LB2D1

Departure

Time 2026-05-04 17:35
Airport Ninoy Aquino International Airport (RPLL)

Arrival

Time 2026-05-04 19:20
Airport Hong Kong International Airport (VHHH)
Time Latitude Longitude Altitude Speed Heading
2026-05-04 17:01 14.50989 121.01455 72 ft 0 kts 255°
2026-05-04 17:16 14.50994 121.01472 62 ft 2 kts 251°
2026-05-04 17:17 14.51000 121.01488 62 ft 2 kts 244°
2026-05-04 17:17 14.51036 121.01515 62 ft 2 kts 154°
2026-05-04 17:18 14.51042 121.01512 62 ft 0 kts 134°
2026-05-04 17:24 14.51036 121.01518 62 ft 4 kts 135°
2026-05-04 17:24 14.50912 121.01647 64 ft 11 kts 137°
2026-05-04 17:25 14.50854 121.01641 64 ft 8 kts 219°
2026-05-04 17:25 14.50784 121.01526 62 ft 11 kts 240°
2026-05-04 17:26 14.50696 121.01369 64 ft 14 kts 240°
2026-05-04 17:26 14.50533 121.01075 62 ft 18 kts 239°
2026-05-04 17:27 14.50399 121.00835 64 ft 21 kts 240°
2026-05-04 17:27 14.50246 121.00561 61 ft 23 kts 240°
2026-05-04 17:28 14.50080 121.00263 62 ft 24 kts 240°
2026-05-04 17:29 14.49904 120.99961 64 ft 10 kts 203°
2026-05-04 17:29 14.49881 120.99965 67 ft 0 kts 153°
2026-05-04 17:31 14.49856 120.99977 68 ft 4 kts 154°
2026-05-04 17:31 14.49825 121.00081 69 ft 7 kts 63°
2026-05-04 17:32 14.49836 121.00101 63 ft 0 kts 59°
2026-05-04 17:34 14.49971 121.00341 66 ft 70 kts 60°
2026-05-04 17:34 14.50321 121.00972 65 ft 131 kts 60°
2026-05-04 17:35 14.52159 121.04256 1804 ft 180 kts 60°
2026-05-04 17:35 14.53489 121.06690 2931 ft 220 kts 60°
2026-05-04 17:35 14.54294 121.08167 3253 ft 248 kts 61°
2026-05-04 17:36 14.55159 121.09752 3920 ft 256 kts 61°
2026-05-04 17:36 14.56111 121.11309 4730 ft 259 kts 53°
2026-05-04 17:36 14.57448 121.12586 5527 ft 265 kts 34°
2026-05-04 17:36 14.59195 121.13251 6264 ft 275 kts
2026-05-04 17:37 14.61107 121.13221 7040 ft 281 kts 357°
2026-05-04 17:37 14.63060 121.12996 7827 ft 285 kts 355°
2026-05-04 17:37 14.65039 121.12738 8652 ft 288 kts 355°
2026-05-04 17:37 14.67048 121.12478 9480 ft 292 kts 356°
2026-05-04 17:38 14.69081 121.12220 10229 ft 297 kts 356°
2026-05-04 17:38 14.71201 121.11957 10573 ft 317 kts 355°
2026-05-04 17:38 14.72675 121.11776 10750 ft 331 kts 355°
2026-05-04 17:38 14.75839 121.11385 11338 ft 348 kts 355°
2026-05-04 17:39 14.79894 121.10882 12402 ft 357 kts 355°
2026-05-04 17:39 14.83199 121.10473 13278 ft 363 kts 354°
2026-05-04 17:39 14.85721 121.10161 13924 ft 367 kts 354°
2026-05-04 17:40 14.87424 121.09951 14310 ft 370 kts 354°
2026-05-04 17:40 14.89986 121.09635 14910 ft 373 kts 354°
2026-05-04 17:40 14.92582 121.09314 15534 ft 376 kts 354°
2026-05-04 17:40 14.95190 121.08992 16144 ft 379 kts 354°
2026-05-04 17:41 14.97824 121.08667 16763 ft 383 kts 354°
2026-05-04 17:41 15.00483 121.08339 17379 ft 386 kts 354°
2026-05-04 17:41 15.03163 121.08008 17971 ft 389 kts 354°
2026-05-04 17:41 15.05860 121.07675 18544 ft 392 kts 353°
2026-05-04 17:42 15.08551 121.07342 19028 ft 396 kts 353°
2026-05-04 17:42 15.11331 121.06999 19530 ft 399 kts 353°
2026-05-04 17:42 15.14065 121.06661 20022 ft 402 kts 353°
2026-05-04 17:42 15.16853 121.06316 20507 ft 405 kts 353°
2026-05-04 17:43 15.19661 121.05969 21003 ft 409 kts 353°
2026-05-04 17:43 15.22505 121.05618 21465 ft 412 kts 353°
2026-05-04 17:43 15.25362 121.05265 21954 ft 415 kts 353°
2026-05-04 17:43 15.28247 121.04908 22437 ft 418 kts 353°
2026-05-04 17:44 15.31139 121.04550 22902 ft 421 kts 353°
2026-05-04 17:44 15.34060 121.04189 23372 ft 424 kts 352°
2026-05-04 17:44 15.37010 121.03823 23772 ft 428 kts 352°
2026-05-04 17:44 15.39978 121.03456 24158 ft 430 kts 352°
2026-05-04 17:45 15.42961 121.03086 24563 ft 433 kts 352°
2026-05-04 17:45 15.45953 121.02678 24958 ft 434 kts 349°
2026-05-04 17:45 15.48854 121.01912 25339 ft 436 kts 339°
2026-05-04 17:45 15.51660 121.00718 25725 ft 437 kts 334°
2026-05-04 17:46 15.54407 120.99349 26107 ft 439 kts 332°
2026-05-04 17:46 15.57128 120.97890 26488 ft 441 kts 331°
2026-05-04 17:46 15.59846 120.96393 26875 ft 443 kts 330°
2026-05-04 17:46 15.62569 120.94891 27250 ft 445 kts 331°
2026-05-04 17:47 15.65318 120.93388 27635 ft 447 kts 331°
2026-05-04 17:47 15.68088 120.91889 28014 ft 449 kts 331°
2026-05-04 17:47 15.70871 120.90396 28395 ft 451 kts 331°
2026-05-04 17:47 15.73680 120.88897 28762 ft 454 kts 331°
2026-05-04 17:48 15.76466 120.87414 29111 ft 456 kts 331°
2026-05-04 17:48 15.79295 120.85909 29471 ft 458 kts 331°
2026-05-04 17:48 15.82150 120.84390 29812 ft 460 kts 331°
2026-05-04 17:48 15.85019 120.82863 30135 ft 462 kts 331°
2026-05-04 17:49 15.87859 120.81350 30447 ft 464 kts 331°
2026-05-04 17:49 15.90754 120.79806 30774 ft 465 kts 331°
2026-05-04 17:49 15.93642 120.78265 31093 ft 466 kts 331°
2026-05-04 17:49 15.96532 120.76723 31402 ft 467 kts 331°
2026-05-04 17:50 15.99396 120.75194 31725 ft 469 kts 330°
2026-05-04 17:50 16.02304 120.73642 32032 ft 469 kts 330°
2026-05-04 17:50 16.05219 120.72084 32394 ft 469 kts 330°
2026-05-04 17:50 16.08124 120.70532 32875 ft 466 kts 330°
2026-05-04 17:51 16.10973 120.69010 33344 ft 463 kts 330°
2026-05-04 17:51 16.13840 120.67478 33800 ft 462 kts 330°
2026-05-04 17:51 16.16696 120.65951 33949 ft 456 kts 330°
2026-05-04 17:51 16.19486 120.64461 33960 ft 441 kts 330°
2026-05-04 17:52 16.24838 120.61599 33953 ft 430 kts 330°
2026-05-04 17:52 16.30169 120.58739 33962 ft 431 kts 329°
2026-05-04 17:53 16.35493 120.55881 33959 ft 432 kts 329°
2026-05-04 17:53 16.40833 120.53016 33970 ft 431 kts 329°
2026-05-04 17:54 16.46174 120.50148 33950 ft 431 kts 329°
2026-05-04 17:54 16.51516 120.47279 33947 ft 431 kts 329°
2026-05-04 17:55 16.56809 120.44435 33950 ft 431 kts 329°
2026-05-04 17:55 16.62153 120.41563 33946 ft 431 kts 329°
2026-05-04 17:56 16.67467 120.38704 33926 ft 431 kts 329°
2026-05-04 17:56 16.72634 120.35558 33923 ft 427 kts 319°
2026-05-04 17:57 16.76975 120.31344 33914 ft 425 kts 312°
2026-05-04 17:57 16.81048 120.26915 33893 ft 425 kts 310°
2026-05-04 17:58 16.85103 120.22412 33894 ft 424 kts 310°
2026-05-04 17:58 16.89148 120.17941 33893 ft 424 kts 311°
2026-05-04 17:59 16.93213 120.13470 33881 ft 425 kts 311°
2026-05-04 18:00 16.99339 120.06741 33883 ft 426 kts 311°
2026-05-04 18:00 17.03404 120.02274 33870 ft 425 kts 310°
2026-05-04 18:01 17.07477 119.97793 33885 ft 424 kts 310°
2026-05-04 18:01 17.11547 119.93310 33868 ft 424 kts 310°
2026-05-04 18:02 17.17631 119.86604 33868 ft 424 kts 310°
2026-05-04 18:02 17.21676 119.82142 33865 ft 425 kts 310°
2026-05-04 18:03 17.25759 119.77635 33875 ft 425 kts 310°
2026-05-04 18:03 17.29816 119.73154 33879 ft 426 kts 310°
2026-05-04 18:04 17.33887 119.68654 33865 ft 426 kts 310°
2026-05-04 18:05 17.40010 119.61883 33866 ft 425 kts 310°
2026-05-04 18:05 17.44065 119.57393 33886 ft 425 kts 310°
2026-05-04 18:06 17.50159 119.50638 33882 ft 426 kts 310°
2026-05-04 18:06 17.54237 119.46114 33884 ft 426 kts 310°
2026-05-04 18:07 17.58275 119.41632 33873 ft 426 kts 310°
2026-05-04 18:07 17.62352 119.37104 33872 ft 426 kts 310°
2026-05-04 18:08 17.66422 119.32581 33883 ft 426 kts 310°
2026-05-04 18:08 17.70501 119.28043 33887 ft 426 kts 310°
2026-05-04 18:09 17.78610 119.19017 33884 ft 425 kts 309°
2026-05-04 18:10 17.82664 119.14497 33887 ft 424 kts 309°
2026-05-04 18:10 17.86704 119.09990 33887 ft 424 kts 309°
2026-05-04 18:11 17.90753 119.05470 33888 ft 424 kts 309°
2026-05-04 18:11 17.94783 119.00968 33893 ft 424 kts 309°
2026-05-04 18:12 17.98832 118.96442 33895 ft 424 kts 309°
2026-05-04 18:12 18.02878 118.91916 33894 ft 424 kts 309°
2026-05-04 18:13 18.06892 118.87421 33899 ft 424 kts 309°
2026-05-04 18:14 18.12945 118.80637 33902 ft 423 kts 309°
2026-05-04 18:14 18.16970 118.76124 33908 ft 422 kts 309°
2026-05-04 18:15 18.24976 118.67132 33905 ft 422 kts 309°
2026-05-04 18:16 18.28993 118.62617 33911 ft 422 kts 309°
2026-05-04 18:16 18.33004 118.58104 33908 ft 422 kts 309°
2026-05-04 18:17 18.38995 118.51358 33915 ft 422 kts 309°
2026-05-04 18:18 18.45005 118.44585 33914 ft 421 kts 309°
2026-05-04 18:18 18.49011 118.40064 33924 ft 421 kts 308°
2026-05-04 18:19 18.54979 118.33328 33917 ft 419 kts 308°
2026-05-04 18:19 18.58946 118.28844 33918 ft 418 kts 308°
2026-05-04 18:20 18.62922 118.24346 33922 ft 418 kts 308°
2026-05-04 18:20 18.66884 118.19861 33923 ft 418 kts 308°
2026-05-04 18:21 18.70853 118.15367 33926 ft 418 kts 308°
2026-05-04 18:21 18.74796 118.10897 33928 ft 418 kts 308°
2026-05-04 18:22 18.78760 118.06401 33933 ft 418 kts 308°
2026-05-04 18:22 18.82719 118.01907 33927 ft 418 kts 308°
2026-05-04 18:23 18.86676 117.97413 33935 ft 417 kts 308°
2026-05-04 18:23 18.90593 117.92961 33930 ft 416 kts 308°
2026-05-04 18:24 18.94528 117.88484 33932 ft 416 kts 308°
2026-05-04 18:24 18.98466 117.84000 33930 ft 416 kts 308°
2026-05-04 18:25 19.02407 117.79510 33932 ft 416 kts 308°
2026-05-04 18:25 19.06334 117.75033 33931 ft 416 kts 308°
2026-05-04 18:26 19.10264 117.70547 33933 ft 416 kts 308°
2026-05-04 18:26 19.13524 117.66824 33936 ft 416 kts 308°
2026-05-04 18:27 19.17473 117.62311 33938 ft 416 kts 308°
2026-05-04 18:27 19.21398 117.57822 33940 ft 416 kts 308°
2026-05-04 18:28 19.25324 117.53328 33938 ft 415 kts 308°
2026-05-04 18:28 19.29231 117.48853 33940 ft 414 kts 308°
2026-05-04 18:29 19.33146 117.44365 33944 ft 414 kts 308°
2026-05-04 18:29 19.37062 117.39871 33944 ft 414 kts 308°
2026-05-04 18:30 19.42905 117.33160 33947 ft 414 kts 308°
2026-05-04 18:31 19.46813 117.28668 33945 ft 414 kts 308°
2026-05-04 18:31 19.50700 117.24195 33947 ft 414 kts 308°
2026-05-04 18:32 19.54606 117.19699 33943 ft 414 kts 308°
2026-05-04 18:32 19.58517 117.15192 33946 ft 414 kts 308°
2026-05-04 18:33 19.62417 117.10695 33949 ft 413 kts 308°
2026-05-04 18:33 19.66301 117.06214 33947 ft 412 kts 308°
2026-05-04 18:34 19.70180 117.01733 33950 ft 412 kts 308°
2026-05-04 18:34 19.74042 116.97269 33948 ft 412 kts 308°
2026-05-04 18:35 19.77915 116.92789 33953 ft 412 kts 308°
2026-05-04 18:35 19.79635 116.90798 35236 ft 412 kts 311°
2026-05-04 18:35 19.81592 116.88531 35027 ft 420 kts 312°
2026-05-04 18:35 19.83591 116.86215 34782 ft 429 kts 312°
2026-05-04 18:36 19.85629 116.83854 34529 ft 438 kts 312°
2026-05-04 18:36 19.87700 116.81455 34385 ft 440 kts 310°
2026-05-04 18:36 19.89778 116.79047 34194 ft 445 kts 312°
2026-05-04 18:36 19.91853 116.76641 34018 ft 450 kts 312°
2026-05-04 18:37 19.93978 116.74176 33997 ft 452 kts 312°
2026-05-04 18:37 19.98230 116.69230 33999 ft 454 kts 310°
2026-05-04 18:37 20.00022 116.66711 32660 ft 455 kts 300°
2026-05-04 18:38 20.01607 116.63866 32890 ft 435 kts 296°
2026-05-04 18:38 20.03044 116.61123 33137 ft 414 kts 295°
2026-05-04 18:38 20.04385 116.58461 33402 ft 405 kts 294°
2026-05-04 18:38 20.05691 116.55805 33677 ft 405 kts 294°
2026-05-04 18:39 20.06969 116.53183 33908 ft 405 kts 294°
2026-05-04 18:39 20.09574 116.47843 33956 ft 406 kts 294°
2026-05-04 18:40 20.12194 116.42507 33959 ft 406 kts 294°
2026-05-04 18:40 20.14822 116.37176 33956 ft 406 kts 294°
2026-05-04 18:41 20.17448 116.31845 33693 ft 406 kts 294°
2026-05-04 18:41 20.18768 116.29161 32791 ft 413 kts 294°
2026-05-04 18:41 20.20115 116.26417 31761 ft 424 kts 294°
2026-05-04 18:41 20.21492 116.23608 30911 ft 431 kts 294°
2026-05-04 18:42 20.22891 116.20760 30265 ft 432 kts 294°
2026-05-04 18:42 20.24268 116.17961 29655 ft 431 kts 294°
2026-05-04 18:42 20.25656 116.15140 29099 ft 427 kts 294°
2026-05-04 18:42 20.27030 116.12344 28575 ft 423 kts 294°
2026-05-04 18:43 20.28394 116.09569 28075 ft 419 kts 294°
2026-05-04 18:43 20.29738 116.06829 27575 ft 415 kts 294°
2026-05-04 18:43 20.31057 116.04136 27080 ft 411 kts 294°
2026-05-04 18:43 20.32373 116.01448 26581 ft 408 kts 294°
2026-05-04 18:44 20.33680 115.98778 26095 ft 404 kts 294°
2026-05-04 18:44 20.34538 115.97022 25778 ft 402 kts 294°
2026-05-04 18:44 20.36257 115.93506 25158 ft 397 kts 294°
2026-05-04 18:44 20.37529 115.90901 24703 ft 394 kts 294°
2026-05-04 18:45 20.38786 115.88328 24247 ft 391 kts 293°
2026-05-04 18:45 20.40039 115.85760 23785 ft 387 kts 293°
2026-05-04 18:45 20.41277 115.83222 23263 ft 386 kts 294°
2026-05-04 18:45 20.42513 115.80685 22666 ft 384 kts 294°
2026-05-04 18:46 20.43743 115.78160 22112 ft 382 kts 294°
2026-05-04 18:46 20.44962 115.75658 21576 ft 379 kts 294°
2026-05-04 18:46 20.46157 115.73204 21068 ft 376 kts 294°
2026-05-04 18:46 20.47359 115.70736 20543 ft 374 kts 294°
2026-05-04 18:47 20.48552 115.68284 20136 ft 371 kts 294°
2026-05-04 18:47 20.49737 115.65848 19982 ft 370 kts 294°
2026-05-04 18:47 20.50924 115.63406 19967 ft 371 kts 294°
2026-05-04 18:47 20.52111 115.60962 19967 ft 371 kts 294°
2026-05-04 18:48 20.53304 115.58505 19967 ft 371 kts 294°
2026-05-04 18:48 20.54549 115.56100 19966 ft 372 kts 298°
2026-05-04 18:48 20.56052 115.53832 19965 ft 375 kts 306°
2026-05-04 18:48 20.57786 115.51733 19969 ft 377 kts 309°
2026-05-04 18:49 20.59584 115.49737 19966 ft 378 kts 310°
2026-05-04 18:49 20.61450 115.47763 19966 ft 378 kts 311°
2026-05-04 18:49 20.63348 115.45801 19966 ft 379 kts 312°
2026-05-04 18:49 20.65247 115.43848 19966 ft 379 kts 312°
2026-05-04 18:50 20.67143 115.41893 19969 ft 379 kts 312°
2026-05-04 18:50 20.69036 115.39931 19968 ft 379 kts 311°
2026-05-04 18:50 20.70928 115.37960 19971 ft 379 kts 311°
2026-05-04 18:50 20.72809 115.35993 19972 ft 379 kts 311°
2026-05-04 18:51 20.74689 115.34022 19968 ft 378 kts 311°
2026-05-04 18:51 20.76568 115.32050 19970 ft 378 kts 311°
2026-05-04 18:51 20.78418 115.30107 19968 ft 378 kts 311°
2026-05-04 18:51 20.80301 115.28129 19973 ft 378 kts 311°
2026-05-04 18:52 20.82171 115.26165 19968 ft 377 kts 311°
2026-05-04 18:52 20.84045 115.24195 19969 ft 377 kts 311°
2026-05-04 18:52 20.85917 115.22228 19969 ft 377 kts 311°
2026-05-04 18:52 20.87778 115.20271 19977 ft 377 kts 311°
2026-05-04 18:53 20.89651 115.18300 19976 ft 377 kts 311°
2026-05-04 18:53 20.91523 115.16331 19974 ft 377 kts 311°
2026-05-04 18:53 20.93387 115.14368 19974 ft 377 kts 311°
2026-05-04 18:53 20.95236 115.12421 19974 ft 377 kts 311°
2026-05-04 18:54 20.97104 115.10453 19974 ft 377 kts 311°
2026-05-04 18:54 20.98981 115.08476 19974 ft 377 kts 311°
2026-05-04 18:54 21.00844 115.06512 19974 ft 377 kts 311°
2026-05-04 18:54 21.02717 115.04537 19875 ft 375 kts 311°
2026-05-04 18:55 21.04576 115.02576 19300 ft 376 kts 311°
2026-05-04 18:55 21.08257 114.98692 18344 ft 371 kts 311°
2026-05-04 18:55 21.10087 114.96760 17804 ft 368 kts 311°
2026-05-04 18:56 21.11908 114.94837 17263 ft 365 kts 311°
2026-05-04 18:56 21.13717 114.92926 16730 ft 363 kts 311°
2026-05-04 18:56 21.15511 114.91030 16212 ft 360 kts 311°
2026-05-04 18:56 21.17288 114.89152 15731 ft 356 kts 311°
2026-05-04 18:57 21.19042 114.87297 15213 ft 354 kts 311°
2026-05-04 18:57 21.20792 114.85445 14689 ft 352 kts 311°
2026-05-04 18:57 21.22527 114.83609 14210 ft 350 kts 311°
2026-05-04 18:57 21.24233 114.81802 13669 ft 348 kts 312°
2026-05-04 18:58 21.25954 114.79979 13122 ft 346 kts 312°
2026-05-04 18:58 21.27666 114.78166 12586 ft 343 kts 311°
2026-05-04 18:58 21.29357 114.76374 12082 ft 340 kts 311°
2026-05-04 18:58 21.31039 114.74592 11557 ft 338 kts 311°
2026-05-04 18:59 21.32704 114.72825 11146 ft 336 kts 312°
2026-05-04 18:59 21.34367 114.71061 10986 ft 336 kts 311°
2026-05-04 18:59 21.36006 114.69321 10977 ft 336 kts 311°
2026-05-04 18:59 21.37672 114.67551 10982 ft 336 kts 311°
2026-05-04 19:00 21.39334 114.65787 10980 ft 337 kts 311°
2026-05-04 19:00 21.41003 114.64014 10977 ft 337 kts 311°
2026-05-04 19:00 21.42670 114.62242 10987 ft 337 kts 311°
2026-05-04 19:00 21.44339 114.60469 10980 ft 337 kts 311°
2026-05-04 19:01 21.46004 114.58698 10983 ft 336 kts 311°
2026-05-04 19:01 21.47692 114.56967 10909 ft 336 kts 315°
2026-05-04 19:01 21.49677 114.55600 10690 ft 343 kts 331°
2026-05-04 19:01 21.51927 114.54692 10467 ft 346 kts 337°
2026-05-04 19:02 21.54189 114.53913 10276 ft 343 kts 339°
2026-05-04 19:02 21.56446 114.53152 10090 ft 338 kts 339°
2026-05-04 19:02 21.58686 114.52390 9867 ft 334 kts 338°
2026-05-04 19:02 21.60799 114.51495 9618 ft 319 kts 327°
2026-05-04 19:03 21.62527 114.50116 9361 ft 304 kts 313°
2026-05-04 19:03 21.63985 114.48519 9141 ft 294 kts 308°
2026-05-04 19:03 21.65356 114.46927 8887 ft 288 kts 308°
2026-05-04 19:03 21.66712 114.45341 8636 ft 288 kts 309°
2026-05-04 19:04 21.68056 114.43773 8399 ft 288 kts 309°
2026-05-04 19:04 21.69417 114.42192 8154 ft 288 kts 309°
2026-05-04 19:04 21.70785 114.40606 8003 ft 288 kts 309°
2026-05-04 19:04 21.72152 114.39023 7989 ft 288 kts 309°
2026-05-04 19:05 21.73516 114.37443 7990 ft 288 kts 309°
2026-05-04 19:05 21.74879 114.35868 7990 ft 287 kts 308°
2026-05-04 19:05 21.76239 114.34293 7989 ft 287 kts 308°
2026-05-04 19:05 21.77600 114.32718 7990 ft 287 kts 307°
2026-05-04 19:06 21.78958 114.31143 7991 ft 288 kts 309°
2026-05-04 19:06 21.80305 114.29583 7976 ft 287 kts 308°
2026-05-04 19:06 21.81664 114.28008 7993 ft 287 kts 309°
2026-05-04 19:06 21.83022 114.26435 7991 ft 287 kts 308°
2026-05-04 19:07 21.84399 114.24838 7982 ft 288 kts 309°
2026-05-04 19:07 21.85744 114.23278 7992 ft 287 kts 309°
2026-05-04 19:07 21.87110 114.21693 7989 ft 289 kts 308°
2026-05-04 19:07 21.88488 114.20087 7910 ft 294 kts 307°
2026-05-04 19:08 21.89706 114.18315 7398 ft 296 kts 296°
2026-05-04 19:08 21.90732 114.16401 7055 ft 292 kts 294°
2026-05-04 19:08 21.91695 114.14525 6734 ft 288 kts 294°
2026-05-04 19:08 21.92673 114.12612 6351 ft 287 kts 296°
2026-05-04 19:09 21.93622 114.10765 5991 ft 285 kts 295°
2026-05-04 19:09 21.94585 114.08892 5541 ft 286 kts 295°
2026-05-04 19:09 21.95550 114.07017 5201 ft 284 kts 297°
2026-05-04 19:09 21.96499 114.05177 4922 ft 278 kts 298°
2026-05-04 19:10 21.97439 114.03356 4532 ft 278 kts 298°
2026-05-04 19:10 21.98385 114.01523 4131 ft 280 kts 298°
2026-05-04 19:10 21.99010 114.00309 4026 ft 280 kts 299°
2026-05-04 19:10 22.00283 113.97841 3990 ft 283 kts 299°
2026-05-04 19:11 22.01233 113.96000 3999 ft 283 kts 298°
2026-05-04 19:11 22.02183 113.94158 3977 ft 281 kts 298°
2026-05-04 19:11 22.03141 113.92298 3563 ft 286 kts 299°
2026-05-04 19:11 22.03791 113.91035 3332 ft 285 kts 299°
2026-05-04 19:12 22.04745 113.89170 2963 ft 283 kts 300°
2026-05-04 19:12 22.06633 113.85505 2295 ft 280 kts 301°
2026-05-04 19:12 22.07558 113.83708 2119 ft 268 kts 301°
2026-05-04 19:13 22.08435 113.82000 1933 ft 252 kts 302°
2026-05-04 19:13 22.09256 113.80402 1815 ft 235 kts 302°
2026-05-04 19:13 22.10083 113.78942 1657 ft 222 kts 311°
2026-05-04 19:13 22.11209 113.77866 1602 ft 214 kts 336°
2026-05-04 19:14 22.12584 113.77377 1595 ft 205 kts 356°
2026-05-04 19:14 22.13991 113.77198 1662 ft 203 kts
2026-05-04 19:14 22.15404 113.77072 1699 ft 204 kts
2026-05-04 19:14 22.16817 113.76954 1705 ft 208 kts
2026-05-04 19:15 22.18287 113.76818 1668 ft 212 kts
2026-05-04 19:15 22.19790 113.76691 1245 ft 215 kts
2026-05-04 19:15 22.21684 113.76492 1267 ft 199 kts
2026-05-04 19:15 22.22608 113.76407 1446 ft 195 kts
2026-05-04 19:16 22.23980 113.76291 1710 ft 203 kts 358°
2026-05-04 19:16 22.25392 113.76194 1701 ft 195 kts
2026-05-04 19:16 22.26495 113.76759 1698 ft 171 kts 49°
2026-05-04 19:16 22.27154 113.77740 1705 ft 153 kts 67°
2026-05-04 19:17 22.27521 113.78776 1701 ft 143 kts 73°
2026-05-04 19:17 22.27841 113.79767 1696 ft 137 kts 72°
2026-05-04 19:17 22.28148 113.80717 1700 ft 130 kts 72°
2026-05-04 19:17 22.28444 113.81619 1636 ft 126 kts 72°
2026-05-04 19:18 22.28735 113.82509 1440 ft 126 kts 72°
2026-05-04 19:18 22.29025 113.83407 1274 ft 126 kts 73°
2026-05-04 19:18 22.29312 113.84299 1106 ft 126 kts 72°
2026-05-04 19:18 22.29598 113.85183 952 ft 126 kts 73°
2026-05-04 19:19 22.29884 113.86078 766 ft 126 kts 72°
2026-05-04 19:19 22.30167 113.86968 639 ft 124 kts 73°
2026-05-04 19:19 22.30477 113.87839 473 ft 123 kts 73°
2026-05-04 19:19 22.30751 113.88706 291 ft 121 kts 74°
2026-05-04 19:20 22.31026 113.89557 111 ft 118 kts 74°
2026-05-04 19:20 22.31286 113.90386 40 ft 109 kts 73°
2026-05-04 19:20 22.31471 113.90970 39 ft 62 kts 70°
2026-05-04 19:20 22.31599 113.91365 39 ft 49 kts 71°
2026-05-04 19:21 22.31660 113.91638 39 ft 25 kts 92°
2026-05-04 19:21 22.31636 113.91809 39 ft 21 kts 100°
2026-05-04 19:21 22.31623 113.91881 39 ft 0 kts 100°
2026-05-04 19:22 22.31622 113.91890 39 ft 2 kts 100°
2026-05-04 19:22 22.31618 113.91914 39 ft 4 kts 100°
2026-05-04 19:22 22.31612 113.91950 39 ft 6 kts 97°
2026-05-04 19:23 22.31610 113.91993 39 ft 6 kts 101°
2026-05-04 19:23 22.31584 113.92030 39 ft 7 kts 139°
2026-05-04 19:23 22.31558 113.92075 39 ft 8 kts 101°
2026-05-04 19:23 22.31571 113.92133 39 ft 9 kts 72°
2026-05-04 19:24 22.31591 113.92200 38 ft 10 kts 72°
2026-05-04 19:24 22.31616 113.92279 39 ft 12 kts 69°
2026-05-04 19:24 22.31646 113.92366 39 ft 13 kts 71°
2026-05-04 19:24 22.31630 113.92452 39 ft 12 kts 113°
2026-05-04 19:25 22.31594 113.92535 39 ft 13 kts 115°
2026-05-04 19:25 22.31569 113.92596 39 ft 6 kts 109°
2026-05-04 19:25 22.31577 113.92631 39 ft 2 kts 49°
2026-05-04 19:25 22.31595 113.92639 39 ft 4 kts 25°
2026-05-04 19:26 22.31627 113.92655 39 ft 6 kts 25°
2026-05-04 19:26 22.31639 113.92662 39 ft 0 kts 25°
2026-05-04 19:26 22.31637 113.92660 39 ft 0 kts 25°
2026-05-04 19:26 22.31643 113.92663 39 ft 0 kts 25°